Location: Jackson Park
(37.2862°N, 79.9123°W)
Time: 13:40:37
(UTC+00:00)

Vanguard 3 - Pass Details

Date: 13 May 2026
Orbit: 507 x 3204 km, 33.3° (Epoch: 6 June)

Event Time Altitude Azimuth Distance (km) Brightness Sun altitude
Rises 21:20:28 0° 262° (W) 7,074 13.0 33.9°
Reaches altitude 10° 21:25:09 10° 261° (W) 6,118 13.1 32.9°
Maximum altitude 21:44:48 78° 180° (S) 2,865 10.4 29.0°
Drops below altitude 10° 21:58:35 10° 97° (E) 4,504 10.5 26.3°
Sets 22:01:28 0° 96° (E) 5,203 10.7 25.7°
